Wind_Speed
16 17 18 19 21 23 24 25 22 20 18 16 16 14 13 16 23 25 24 21 17 14
18 18 20 21 23 24 24 23 18 21 17 16 19 21 24 20 16 13 12 13 12 13
19 20 22 23 23 23 21 19 20 20 21 22 25 24 22 18 16 16 14 14 12 14
21 21 21 22 20 18 18 17 14 17 20 23 18 14 13 13 14 14 16 15 16 16
19 20 19 16 22 18 15 15 15 16 14 11 14 14 16 17 16 17 18 20 21 22
19 19 19 20 16 15 14 14 15 13 14 16 19 20 19 19 20 20 22 23 23 23
17 16 15 18 20 13 15 16 17 19 19 20 20 20 20 18 18 21 22 23 23 23
20 14 15 14 14 15 16 17 19 21 21 20 20 22 21 25 26 23 24 24 24 23
13 14 15 14 14 15 17 20 21 21 20 20 20 23 26 30 31 26 24 24 24 24
15 14 13 14 16 17 20 21 21 21 20 20 20 24 27 32 33 25 23 23 24 24
15 15 15 17 18 20 20 20 20 20 20 20 20 25 31 34 30 22 23 23 23 24
14 16 17 18 19 19 19 20 20 19 19 20 21 24 29 31 22 22 24 22 22 22
18 17 18 18 18 18 19 20 19 20 23 21 22 22 27 26 23 25 23 23 22 22
18 17 17 16 16 19 19 19 21 26 25 22 20 23 23 24 21 24 25 25 25 22
Wind_Direction
312 309 310 311 312 311 312 313 315 311 300 288 276 282 292 298 300 300 295 291 288 291
309 308 310 310 312 315 317 319 306 287 281 280 289 287 292 285 301 291 312 310 309 313
309 310 309 311 313 314 310 299 301 297 291 293 297 299 307 306 290 292 309 312 304 300
309 308 308 309 309 309 304 303 302 309 310 305 314 313 309 305 305 303 305 298 293 290
312 311 309 300 298 301 300 307 304 317 320 316 312 311 308 305 297 296 295 296 295 291
316 310 303 306 306 303 305 301 305 307 307 312 308 303 298 296 295 295 294 293 291 289
317 312 301 299 304 291 306 309 318 316 310 305 304 300 298 292 294 298 296 292 289 287
323 317 320 328 332 318 317 312 309 306 305 304 302 300 289 287 295 302 298 293 290 288
310 311 309 310 310 309 309 311 310 307 306 305 305 296 294 293 298 302 299 296 293 290
303 304 307 308 310 309 312 310 308 307 306 305 305 299 296 295 299 301 300 296 293 291
300 300 305 308 310 311 310 309 308 308 308 307 305 302 297 297 305 303 298 294 293 291
297 303 306 308 310 310 309 309 308 307 308 307 301 297 298 304 310 304 298 299 295 293
299 300 303 306 308 310 309 308 306 299 311 308 309 306 309 319 316 311 312 307 302 299
296 298 301 303 311 311 309 308 299 308 315 315 309 311 316 310 310 314 309 307 306 303
Height
1525 1522 1519 1516 1513 1509 1505 1500 1495 1492 1488 1484 1480 1478 1477 1474 1472 1470 1467 1464 1461 1459
1521 1518 1515 1511 1508 1503 1499 1494 1491 1485 1482 1480 1478 1476 1474 1472 1469 1466 1464 1462 1459 1457
1516 1514 1510 1506 1503 1500 1496 1489 1486 1482 1480 1478 1475 1473 1470 1468 1466 1464 1461 1459 1458 1456
1512 1509 1505 1503 1500 1496 1491 1486 1483 1479 1476 1474 1472 1470 1467 1465 1463 1461 1459 1458 1455 1453
1508 1505 1502 1497 1493 1491 1487 1483 1481 1476 1474 1473 1471 1468 1466 1463 1461 1459 1457 1454 1452 1449
1503 1499 1496 1493 1489 1487 1484 1481 1479 1476 1472 1470 1468 1465 1462 1460 1458 1455 1452 1449 1447 1444
1498 1495 1493 1488 1484 1482 1480 1478 1475 1473 1471 1468 1464 1461 1458 1455 1453 1450 1447 1444 1441 1438
1494 1492 1488 1485 1482 1480 1478 1477 1474 1471 1468 1464 1460 1456 1452 1449 1446 1443 1440 1438 1435 1432
1491 1489 1486 1483 1480 1478 1476 1473 1470 1467 1463 1460 1457 1450 1447 1444 1441 1437 1434 1430 1428 1425
1488 1485 1482 1480 1477 1474 1472 1469 1466 1462 1459 1456 1453 1445 1441 1438 1434 1430 1427 1425 1422 1419
1485 1481 1478 1476 1473 1470 1468 1465 1462 1458 1455 1451 1449 1441 1435 1431 1428 1425 1422 1419 1416 1412
1481 1478 1475 1472 1469 1466 1463 1461 1457 1454 1450 1446 1442 1437 1431 1426 1423 1419 1415 1413 1409 1406
1477 1474 1471 1468 1465 1462 1460 1457 1453 1449 1445 1440 1435 1432 1427 1422 1418 1414 1410 1407 1403 1400
1472 1469 1466 1464 1461 1459 1456 1452 1447 1444 1440 1436 1432 1427 1423 1419 1415 1411 1405 1401 1397 1394